This demonstration page uses our WeatherBlox Daily Observations layout. Learn more.

Left ArrowRight Arrow

Hourly Observations for April 3, 2019

Temp ( °F °C ) Dew Point ( °F °C ) Humidity (%) Winds ( mph kmh ) Pressure ( in mb ) Visibility ( mi km ) Precip ( " mm )
12:52 am 00:52 Clear 45 7.2 34 1.1 66 66 SE 3 6 30.13 1020 10 16 0.00 0.00
1:52 am 01:52 Clear 43 6.1 34 1.1 71 71 SE 5 7 30.12 1020 10 16 0.00 0.00
2:52 am 02:52 Clear 42 5.6 32 0 68 68 S 3 6 30.13 1020 10 16 0.00 0.00
3:52 am 03:52 Clear 41 5 31 -0.6 67 67 SE 3 6 30.12 1020 10 16 0.00 0.00
4:52 am 04:52 Mostly Cloudy 40 4.4 31 -0.6 70 70 Calm 30.13 1020 10 16 0.00 0.00
5:52 am 05:52 Cloudy 38 3.3 34 1.1 86 86 NW 3 6 30.15 1021 10 16 0.00 0.00
6:52 am 06:52 Cloudy 40 4.4 34 1.1 79 79 Calm 30.15 1021 10 16 0.00 0.00
7:52 am 07:52 Cloudy 42 5.6 36 2.2 79 79 Calm 30.15 1021 10 16 0.00 0.00
8:52 am 08:52 Cloudy 45 7.2 33 0.6 63 63 VRB 7 11 30.15 1021 10 16 0.00 0.00
9:52 am 09:52 Cloudy 46 7.8 34 1.1 63 63 SSE 7 11 30.17 1022 10 16 0.00 0.00
10:52 am 10:52 Cloudy with Light Rain 47 8.3 38 3.3 71 71 SE 9 15 30.17 1022 10 16 0.01 0.25
11:52 am 11:52 Cloudy with Light Rain 49 9.4 38 3.3 66 66 SE 8 13 30.17 1022 10 16 0.00 0.03
12:52 pm 12:52 Cloudy with Light Rain 49 9.4 39 3.9 69 69 E 8 13 30.16 1021 8 13 0.00 0.03
1:52 pm 13:52 Cloudy with Light Rain 47 8.3 40 4.4 77 77 E 9 15 30.14 1021 8 13 0.02 0.51
2:52 pm 14:52 Cloudy with Light Rain 48 8.9 40 4.4 74 74 ESE 10 17 30.14 1021 8 13 0.02 0.51
3:52 pm 15:52 Cloudy with Rain 48 8.9 41 5 77 77 E 18 30 30.10 1019 6 10 0.03 0.76
4:52 pm 16:52 Cloudy with Light Rain 49 9.4 42 5.6 77 77 E 22 35 30.08 1019 10 16 0.04 1.02
5:52 pm 17:52 Cloudy with Light Rain 48 8.9 42 5.6 80 80 E 18 30 30.09 1019 10 16 0.01 0.25
6:52 pm 18:52 Cloudy with Light Rain 47 8.3 41 5 80 80 E 22 35 30.08 1019 10 16 0.00 0.03
7:52 pm 19:52 Mostly Cloudy 47 8.3 39 3.9 74 74 E 20 31 30.08 1019 10 16 0.00 0.03
8:52 pm 20:52 Cloudy 47 8.3 39 3.9 74 74 E 18 30 30.07 1018 10 16 0.00 0.00
9:52 pm 21:52 Cloudy 48 8.9 38 3.3 68 68 E 26 43 30.09 1019 10 16 0.00 0.00
10:52 pm 22:52 Cloudy 48 8.9 37 2.8 66 66 ESE 23 37 30.10 1019 10 16 0.00 0.00
11:52 pm 23:52 Cloudy 48 8.9 37 2.8 66 66 ESE 17 28 30.09 1019 10 16 0.00 0.00

Powered by AerisWeather